TimeCST,TemperatureF,Dew PointF,Humidity,Sea Level PressureIn,VisibilityMPH,Wind Direction,Wind SpeedMPH,Gust SpeedMPH,PrecipitationIn,Events,Conditions,WindDirDegrees,DateUTC
12:54 AM,1.0,-7.1,69,30.26,10.0,WNW,10.4,-,N/A,,Clear,300,2013-02-20 06:54:00
1:54 AM,1.0,-6.0,72,30.29,10.0,NW,11.5,-,N/A,,Clear,310,2013-02-20 07:54:00
2:54 AM,-0.0,-6.0,76,30.32,10.0,WNW,11.5,-,N/A,,Clear,300,2013-02-20 08:54:00
3:54 AM,-0.0,-6.0,76,30.34,10.0,NW,12.7,-,N/A,,Clear,310,2013-02-20 09:54:00
4:54 AM,-0.9,-7.1,75,30.36,10.0,NW,12.7,-,N/A,,Scattered Clouds,310,2013-02-20 10:54:00
5:02 AM,-2.2,-7.6,78,30.25,10.0,NW,15.0,-,N/A,,Mostly Cloudy,320,2013-02-20 11:02:00
5:13 AM,-0.4,-5.8,78,30.25,10.0,NNW,16.1,-,N/A,,Scattered Clouds,330,2013-02-20 11:13:00
5:54 AM,1.0,-4.0,79,30.36,10.0,NW,16.1,-,N/A,,Clear,320,2013-02-20 11:54:00
6:54 AM,1.9,-2.0,83,30.36,10.0,North,9.2,-,N/A,,Clear,350,2013-02-20 12:54:00
7:54 AM,1.9,-4.0,76,30.39,10.0,NW,5.8,-,N/A,,Clear,320,2013-02-20 13:54:00
8:54 AM,6.1,-0.0,76,30.38,10.0,NNW,11.5,-,N/A,,Clear,330,2013-02-20 14:54:00
9:54 AM,10.9,3.0,70,30.38,10.0,NNW,16.1,-,N/A,,Clear,340,2013-02-20 15:54:00
10:54 AM,14.0,3.9,64,30.38,10.0,North,11.5,19.6,N/A,,Clear,360,2013-02-20 16:54:00
11:54 AM,17.1,5.0,59,30.40,10.0,NNW,8.1,-,N/A,,Clear,340,2013-02-20 17:54:00
12:54 PM,18.0,7.0,62,30.38,10.0,NW,11.5,-,N/A,,Clear,320,2013-02-20 18:54:00
1:54 PM,19.0,7.0,59,30.40,10.0,WNW,10.4,-,N/A,,Clear,300,2013-02-20 19:54:00
2:54 PM,19.9,6.1,55,30.42,10.0,NNW,10.4,-,N/A,,Clear,340,2013-02-20 20:54:00
3:54 PM,19.9,5.0,52,30.42,10.0,NNW,13.8,-,N/A,,Clear,330,2013-02-20 21:54:00
4:54 PM,17.1,6.1,62,30.43,10.0,WNW,8.1,-,N/A,,Clear,300,2013-02-20 22:54:00
5:54 PM,12.9,3.9,67,30.43,10.0,NW,9.2,-,N/A,,Clear,310,2013-02-20 23:54:00
6:54 PM,10.9,1.9,67,30.43,10.0,NNW,8.1,-,N/A,,Clear,340,2013-02-21 00:54:00
7:54 PM,16.0,3.9,59,30.41,10.0,NNE,8.1,-,N/A,,Clear,20,2013-02-21 01:54:00
9:54 PM,12.0,3.9,70,30.41,10.0,NNE,13.8,-,N/A,,Clear,30,2013-02-21 03:54:00
10:54 PM,10.0,3.0,73,30.43,10.0,NE,8.1,-,N/A,,Clear,50,2013-02-21 04:54:00
11:54 PM,8.1,1.0,73,30.44,10.0,ENE,3.5,-,N/A,,Clear,70,2013-02-21 05:54:00